Regional Weather Roundup
Issued by NWS

Home | Current Version | Previous Version | Text Only | Print | Product List | Glossary On
Versions: 1 2 3 4 5 6 7 8 9 10 11 12 13 14 15 16 17 18 19 20 21 22 23 24 25 26 27 28
000
ASUS44 KLIX 240212
RWRLA
LOUISIANA WEATHER ROUNDUP
NATIONAL WEATHER SERVICE NEW ORLEANS LA
800 PM CST THU FEB 23 2017

NOTE: "FAIR" INDICATES FEW OR NO CLOUDS BELOW 12,000 FEET WITH NO
      SIGNIFICANT WEATHER AND/OR OBSTRUCTIONS TO VISIBILITY.
      SKY/WX - SKY CONDITION AND SIGNIFICANT WEATHER.
      TMP - AIR TEMPERATURE.    DP   - DEWPOINT TEMPERATURE.
      RH  - RELATIVE HUMIDITY.  PRES - PRESSURE.
      HX  - HEAT INDEX.         WCI  - WIND CHILL INDEX.

*  THESE STATIONS ARE NOT NWS OR FAA STATIONS AND ARE NOT UNDER
   NWS QUALITY CONTROL.

LAZ040-048-061>063-065-066-069-240300-
SOUTHEAST LOUISIANA

CITY           SKY/WX    TMP DP  RH WIND       PRES   REMARKS
N.O. AUDUBON   NOT AVBL
N.O. INTL ARPT CLEAR     67  59  75 S8        29.80R
N.O. LAKEFRONT CLEAR     68  61  78 S8        29.81R
N.O. DOWNTOWN*   N/A     72  61  68 S6        29.82R
RESERVE*       FAIR      67  60  78 SE9       29.79R
SLIDELL        CLEAR     66  63  90 SE5       29.80R
BATON ROUGE    CLEAR     69  56  62 S6        29.76R
BOOTHVILLE     CLEAR     64  64 100 SE5       29.83R
BELLE CHASSE   PTCLDY    66  61  84 S6        29.81R
BOGALUSA*      FAIR      70  59  68 S6        29.80R
GALLIANO*      CLEAR     60  57  89 CALM      29.82R
NEW ROADS*     FAIR      66  56  69 S5        29.76S
GONZALES*      FAIR      66  58  75 S6        29.77S
HAMMOND*       CLEAR     64  61  88 SE8       29.79R
HOUMA*         CLEAR     63  59  87 SE3       29.80R
PORT FOURCHON* CLEAR     68  63  83 SE3       29.82R

$$

LAZ041-044-053-054-240300-
SOUTHWEST LOUISIANA

CITY           SKY/WX    TMP DP  RH WIND       PRES   REMARKS
LAKE CHARLES   CLEAR     62  61  96 SE8       29.74S
LAFAYETTE      CLEAR     66  57  72 S5        29.77R
PATTERSON      CLEAR     63  60  90 S7        29.79S
SALT POINT       N/A     63  61  93 SE5       29.77S
NEW IBERIA     CLEAR     60  56  86 SE5       29.77R
CHENAULT AIRPK NOT AVBL

$$

LAZ027-028-240300-
CENTRAL LOUISIANA

CITY           SKY/WX    TMP DP  RH WIND       PRES   REMARKS
FORT POLK      CLEAR     64  58  81 S12       29.70F
ALEXANDRIA INT CLEAR     66  56  70 S13       29.70F
ALEXANDRIA     CLEAR     68  57  68 S8        29.72S

$$

LAZ001-002-240300-
NORTHWEST LOUISIANA

CITY           SKY/WX    TMP DP  RH WIND       PRES   REMARKS
SHREVEPORT     CLEAR     72  55  55 S15       29.62R
BARKSDALE AFB  CLEAR     69  56  63 S15G21    29.63R
DTN SHREVEPORT CLEAR     73  56  54 S10       29.62R

$$

LAZ014-016-240300-
NORTHEAST LOUISIANA

CITY           SKY/WX    TMP DP  RH WIND       PRES   REMARKS
MONROE         CLEAR     71  55  56 S15G22    29.67F
TALLULAH       CLEAR     65  56  72 S6        29.71R

$$





USA.gov is the U.S. government's official web portal to all federal, state and local government web resources and services.